Home > Weather > Saint-Georges > Past weeks

Flag for Canada Past Weather in Saint-Georges, Quebec, Canada — Yesterday and Last 2 Weeks

Now
74 °F

Mild.


Feels Like: 77 °F
Forecast: 55 / 78 °F
Wind: 3 mph from North

Location: Beauceville

Current Time: Jul 29, 2016 at 12:06:13 PM

Latest Report: Jul 29, 2016 at 11:00 AM


Visibility: N/A

Pressure: 29.93 "Hg

Humidity: 56%

Dew Point: 57 °F

Location of Saint-GeorgesLocation

Past Weather in Saint-Georges — Graph

°F

Saint-Georges Temperature Yesterday

Maximum temperature yesterday: 78 °F (at 2:00 PM)
Minimum temperature yesterday: 59 °F (at 11:00 PM)
Average temperature yesterday: 70 °F

High & Low Weather Summary for the Past Weeks

 TemperatureHumidityPressure
High89 °F (Jul 14, 1:00 PM)100% (Jul 14, 10:00 PM)30.13 "Hg (Jul 14, 10:00 PM)
Low51 °F (Jul 19, 5:00 AM)43% (Jul 14, 2:00 PM)29.62 "Hg (Jul 22, 1:00 PM)
Average67 °F78%29.89 "Hg
* Reported Jul 14 11:00 AM — Jul 29 11:00 AM, Saint-Georges, Weather by CustomWeather, © 2016

Note: Actual official high and low records may vary slightly from our data, if they occured in-between our weather recording intervals... More about our weather records

Advertising

Saint-Georges Weather History for the Previous 24 Hours

Scroll right to see more
 ConditionsComfort  
Time TempWeatherWind HumidityBarometerVisibility
11:00 AM
Fri, Jul 29
74 °FMild.3 mph56%29.93 "HgN/A
10:00 AM71 °FMild.2 mph69%29.94 "HgN/A
9:00 AM64 °FMild.1 mph83%29.95 "HgN/A
8:00 AM61 °FCool.1 mph91%29.94 "HgN/A
7:00 AM57 °FCool.1 mph98%29.93 "HgN/A
6:00 AM55 °FCool.2 mph100%29.93 "HgN/A
5:00 AM54 °FCool.2 mph100%29.92 "HgN/A
4:00 AM55 °FCool.2 mph100%29.91 "HgN/A
3:00 AM56 °FCool.1 mph99%29.91 "HgN/A
2:00 AM57 °FCool.2 mph99%29.91 "HgN/A
1:00 AM58 °FCool.2 mph96%29.92 "HgN/A
12:00 AM58 °FCool.2 mph93%29.91 "HgN/A
11:00 PM
Thu, Jul 28
59 °FCool.1 mph87%29.91 "HgN/A
10:00 PM62 °FMild.3 mph79%29.91 "HgN/A
9:00 PM66 °FMild.3 mph71%29.91 "HgN/A
8:00 PM68 °FMild.5 mph68%29.90 "HgN/A
7:00 PM74 °FMild.3 mph50%29.89 "HgN/A
6:00 PM76 °FMild.5 mph50%29.88 "HgN/A
5:00 PM77 °FWarm.5 mph48%29.86 "HgN/A
4:00 PM76 °FMild.6 mph60%29.87 "HgN/A
3:00 PM75 °FMild.6 mph64%29.87 "HgN/A
2:00 PM78 °FWarm.7 mph61%29.86 "HgN/A
1:00 PM77 °FWarm.6 mph63%29.87 "HgN/A
12:00 PM77 °FWarm.3 mph68%29.87 "HgN/A
Weather by CustomWeather, © 2016

See weather overviewHow to use our weather pages